Saint Francis, KS

10:52 PM CST on February 22, 2017 (GMT -0600)
Cheyenne County Municipal

Weather History for KSYF - August, 2013

Change the Weather History Date:

Friday, August 2, 2013

  Actual Average Record
Temperature  
Mean Temperature 82 °F -  
Max Temperature 97 °F 89 °F 97 °F (2013)
Min Temperature 66 °F 61 °F 58 °F (2014)
Cooling Degree Days 16    
Growing Degree Days 32 (Base 50)    
Moisture  
Dew Point 60 °F    
Average Humidity 55    
Maximum Humidity 88    
Minimum Humidity 20    
Precipitation  
Precipitation 0.00 in - - ()
Sea Level Pressure  
Sea Level Pressure 29.94 in    
Wind  
Wind Speed 10 mph (ESE)    
Max Wind Speed 21 mph    
Max Gust Speed 25 mph    
Visibility 10 miles    
Events      
Averages and records for this station are not official NWS values.
T = Trace of Precipitation, MM = Missing Value Source: NWS Daily Summary

Daily Weather History Graph

Daily Weather History Graph

Search for Another Location

Airport or City:

Trip Planner

Search our weather history database for the weather conditions in past years. The results will help you decide how hot, cold, wet, or windy it might be!

Date:

Astronomy

Aug. 02, 2013 Rise Set
Actual Time 6:47 AM CDT 8:58 PM CDT
Civil Twilight 6:17 AM CDT 9:28 PM CDT
Nautical Twilight 5:40 AM CDT 10:05 PM CDT
Astronomical Twilight 4:59 AM CDT 10:45 PM CDT
Moon 3:09 AM CDT (8/2) 5:58 PM CDT (8/2)
Length of Visible Light 15h 11m
Length of Day
14h 11m
Waning Crescent, 15% of the Moon is Illuminated
Aug 2
Waning Crescent
Aug 6
New
Aug 14
First Quarter
Aug 20
Full
Aug 28
Last Quarter

Hourly Weather History & Observations

Time (CDT) Temp. Heat Index Dew Point Humidity Pressure Visibility Wind Dir Wind Speed Gust Speed Precip Events Conditions
12:15 AM 72.7 °F - 62.6 °F 71% 29.92 in 10.0 mi SE 4.6 mph - N/A   Clear
12:35 AM 74.3 °F - 61.7 °F 65% 29.92 in 10.0 mi South 16.1 mph - N/A   Clear
12:55 AM 73.8 °F - 61.7 °F 66% 29.92 in 10.0 mi SSE 10.4 mph - N/A   Clear
1:15 AM 74.1 °F - 61.9 °F 65% 29.93 in 10.0 mi SSE 11.5 mph - N/A   Clear
1:35 AM 73.4 °F - 61.9 °F 67% 29.93 in 10.0 mi North 6.9 mph - N/A   Clear
1:55 AM 72.9 °F - 61.9 °F 68% 29.93 in 10.0 mi Calm Calm - N/A   Clear
2:15 AM 71.8 °F - 62.1 °F 71% 29.92 in 10.0 mi East 4.6 mph - N/A   Clear
2:35 AM 72.5 °F - 61.9 °F 69% 29.92 in 10.0 mi ESE 10.4 mph - N/A   Clear
2:55 AM 72.0 °F - 61.9 °F 70% 29.92 in 10.0 mi East 9.2 mph - N/A   Clear
3:15 AM 72.0 °F - 62.1 °F 71% 29.92 in 10.0 mi East 8.1 mph - N/A   Clear
3:35 AM 71.4 °F - 62.6 °F 74% 29.91 in 10.0 mi ESE 8.1 mph - N/A   Clear
3:55 AM 70.3 °F - 63.5 °F 79% 29.91 in 10.0 mi ESE 15.0 mph - N/A   Clear
4:15 AM 69.8 °F - 64.0 °F 82% 29.92 in 10.0 mi ESE 16.1 mph - N/A   Clear
4:35 AM 69.8 °F - 63.9 °F 81% 29.91 in 10.0 mi SE 12.7 mph - N/A   Clear
4:55 AM 69.4 °F - 63.7 °F 82% 29.91 in 10.0 mi SE 16.1 mph 19.6 mph N/A   Clear
5:15 AM 68.9 °F - 63.7 °F 83% 29.90 in 10.0 mi SE 16.1 mph 20.7 mph N/A   Clear
5:35 AM 67.8 °F - 63.1 °F 85% 29.90 in 10.0 mi SE 18.4 mph 24.2 mph N/A   Clear
5:55 AM 66.9 °F - 63.1 °F 88% 29.91 in 10.0 mi SE 17.3 mph 25.3 mph N/A   Clear
6:15 AM 67.1 °F - 63.5 °F 88% 29.91 in 10.0 mi SE 20.7 mph - N/A   Mostly Cloudy
6:35 AM 66.7 °F - 62.8 °F 87% 29.92 in 10.0 mi SE 12.7 mph - N/A   Overcast
6:55 AM 66.2 °F - 62.1 °F 86% 29.92 in 10.0 mi SE 12.7 mph - N/A   Mostly Cloudy
7:15 AM 66.2 °F - 61.7 °F 85% 29.92 in 10.0 mi SE 12.7 mph - N/A   Scattered Clouds
7:35 AM 66.6 °F - 61.7 °F 84% 29.94 in 10.0 mi SE 12.7 mph - N/A   Clear
7:55 AM 67.3 °F - 61.7 °F 82% 29.94 in 10.0 mi SE 13.8 mph - N/A   Clear
8:15 AM 67.8 °F - 61.7 °F 81% 29.95 in 10.0 mi SE 13.8 mph - N/A   Clear
8:35 AM 67.3 °F - 61.3 °F 81% 29.95 in 10.0 mi SSE 12.7 mph - N/A   Scattered Clouds
8:55 AM 70.2 °F - 61.9 °F 75% 29.96 in 10.0 mi SSE 10.4 mph - N/A   Mostly Cloudy
9:15 AM 70.5 °F - 61.9 °F 74% 29.96 in 10.0 mi SSE 9.2 mph - N/A   Overcast
9:35 AM 71.8 °F - 62.1 °F 71% 29.96 in 10.0 mi South 10.4 mph - N/A   Overcast
9:55 AM 73.4 °F - 62.2 °F 68% 29.94 in 10.0 mi SSE 11.5 mph - N/A   Mostly Cloudy
10:15 AM 75.6 °F - 62.4 °F 64% 29.95 in 10.0 mi South 6.9 mph - N/A   Scattered Clouds
10:35 AM 76.5 °F - 62.2 °F 61% 29.95 in 10.0 mi Calm Calm - N/A   Clear
10:55 AM 77.7 °F - 62.4 °F 59% 29.94 in 10.0 mi SSW 5.8 mph - N/A   Clear
11:15 AM 78.4 °F - 62.1 °F 57% 29.94 in 10.0 mi WSW 5.8 mph - N/A   Clear
11:35 AM 80.8 °F 81.9 °F 62.1 °F 53% 29.93 in 10.0 mi WSW 8.1 mph - N/A   Clear
11:55 AM 81.9 °F 82.6 °F 61.5 °F 50% 29.93 in 10.0 mi SSW 3.5 mph - N/A   Clear
12:15 PM 83.1 °F 83.5 °F 60.8 °F 47% 29.93 in 10.0 mi South 8.1 mph - N/A   Clear
12:35 PM 86.2 °F 85.4 °F 58.8 °F 39% 29.93 in 10.0 mi NW 5.8 mph - N/A   Clear
12:55 PM 87.8 °F 86.9 °F 58.8 °F 37% 29.94 in 10.0 mi NNW 5.8 mph - N/A   Clear
1:15 PM 91.4 °F 89.9 °F 56.5 °F 31% 29.94 in 10.0 mi North 4.6 mph - N/A   Clear
1:35 PM 91.0 °F 89.4 °F 56.8 °F 31% 29.94 in 10.0 mi NNW 3.5 mph - N/A   Clear
1:55 PM 91.0 °F 89.7 °F 57.2 °F 32% 29.94 in 10.0 mi NE 10.4 mph - N/A   Clear
2:15 PM 91.4 °F 90.1 °F 57.4 °F 32% 29.93 in 10.0 mi NNE 8.1 mph - N/A   Clear
2:35 PM 94.1 °F 92.2 °F 55.0 °F 27% 29.93 in 10.0 mi NNE 10.4 mph - N/A   Clear
2:55 PM 95.9 °F - 51.6 °F 22% 29.93 in 10.0 mi North 9.2 mph 16.1 mph N/A   Clear
3:15 PM 96.1 °F - 51.3 °F 22% 29.93 in 10.0 mi North 10.4 mph - N/A   Clear
3:35 PM 96.3 °F - 49.8 °F 21% 29.93 in 10.0 mi NNE 10.4 mph 19.6 mph N/A   Clear
3:55 PM 96.4 °F - 50.2 °F 21% 29.93 in 10.0 mi NE 11.5 mph 18.4 mph N/A   Clear
4:15 PM 97.0 °F - 49.6 °F 20% 29.93 in 10.0 mi NNE 8.1 mph 18.4 mph N/A   Clear
4:35 PM 97.2 °F - 51.4 °F 21% 29.93 in 10.0 mi East 10.4 mph 20.7 mph N/A   Clear
4:55 PM 95.9 °F - 50.9 °F 22% 29.93 in 10.0 mi East 12.7 mph 23.0 mph N/A   Clear
5:15 PM 96.8 °F - 50.0 °F 20% 29.93 in 10.0 mi NE 15.0 mph 19.6 mph N/A   Clear
5:35 PM 96.1 °F - 49.3 °F 20% 29.94 in 10.0 mi ENE 13.8 mph 19.6 mph N/A   Clear
5:55 PM 95.4 °F - 47.7 °F 20% 29.93 in 10.0 mi NNE 13.8 mph - N/A   Clear
6:15 PM 95.0 °F - 50.4 °F 22% 29.93 in 10.0 mi NE 12.7 mph 20.7 mph N/A   Clear
6:35 PM 94.8 °F - 50.9 °F 22% 29.93 in 10.0 mi ENE 17.3 mph 23.0 mph N/A   Clear
6:55 PM 93.7 °F - 50.4 °F 23% 29.93 in 10.0 mi East 16.1 mph 19.6 mph N/A   Clear
7:15 PM 92.7 °F - 50.2 °F 23% 29.94 in 10.0 mi ENE 15.0 mph 20.7 mph N/A   Clear
7:35 PM 91.0 °F 88.9 °F 54.5 °F 29% 29.95 in 10.0 mi East 16.1 mph - N/A   Clear
7:55 PM 90.0 °F 88.1 °F 55.4 °F 31% 29.96 in 10.0 mi East 17.3 mph 23.0 mph N/A   Clear
8:15 PM 88.0 °F 87.6 °F 59.9 °F 39% 29.96 in 10.0 mi ESE 13.8 mph - N/A   Clear
8:35 PM 85.8 °F 85.7 °F 60.1 °F 42% 29.97 in 10.0 mi ESE 12.7 mph - N/A   Clear
8:55 PM 84.2 °F 84.4 °F 60.6 °F 45% 29.98 in 10.0 mi ESE 9.2 mph - N/A   Clear
9:15 PM 81.7 °F 82.6 °F 62.1 °F 51% 29.98 in 10.0 mi ESE 8.1 mph - N/A   Clear
9:35 PM 80.6 °F 81.9 °F 63.1 °F 55% 29.99 in 10.0 mi ESE 9.2 mph - N/A   Clear
9:55 PM 79.7 °F - 63.9 °F 58% 29.99 in 10.0 mi ESE 9.2 mph - N/A   Clear
10:15 PM 78.8 °F - 64.8 °F 62% 30.00 in 10.0 mi ESE 10.4 mph - N/A   Clear
10:35 PM 78.3 °F - 65.7 °F 65% 30.00 in 10.0 mi ESE 10.4 mph - N/A   Clear
10:55 PM 77.5 °F - 66.2 °F 68% 30.02 in 10.0 mi East 10.4 mph - N/A   Clear
11:15 PM 77.0 °F - 67.1 °F 71% 30.02 in 10.0 mi ESE 12.7 mph - N/A   Clear
11:35 PM 75.7 °F - 67.1 °F 74% 30.03 in 10.0 mi ESE 9.2 mph - N/A   Clear
11:55 PM 74.8 °F - 67.3 °F 77% 30.03 in 10.0 mi East 13.8 mph 18.4 mph N/A   Clear